Weather History for Grants-Milan, NM

Change the Weather History Date:

Saturday, December 29, 2012

  Actual Average Record
Temperature  
Mean Temperature 16 °F -  
Max Temperature 36 °F 43 °F 62 °F (1998)
Min Temperature -4 °F 13 °F -11 °F (1966)
Degree Days  
Heating Degree Days 49    
Moisture  
Dew Point 5 °F    
Average Humidity 58    
Maximum Humidity 88    
Minimum Humidity 28    
Precipitation  
Precipitation 0.00 in - - ()
Sea Level Pressure  
Sea Level Pressure 30.16 in    
Wind  
Wind Speed 8 mph (South)    
Max Wind Speed 20 mph    
Max Gust Speed 25 mph    
Visibility 10 miles    
Events      
Averages and records for this station are not official NWS values.
T = Trace of Precipitation, MM = Missing Value Source: NWS Daily Summary

Daily Weather History Graph

Daily Weather History Graph

Search for Another Location

Airport:

Trip Planner

Search our weather history database for the weather conditions in past years. The results will help you decide how hot, cold, wet, or windy it might be!

Date:

Astronomy

Dec. 29, 2012 Rise Set
Actual Time 7:19 AM MST 5:08 PM MST
Civil Twilight 6:51 AM MST 5:36 PM MST
Nautical Twilight 6:19 AM MST 6:08 PM MST
Astronomical Twilight 5:48 AM MST 6:39 PM MST
Moon 6:40 PM MST (12/29) 7:58 AM MST (12/29)
Length of Visible Light 10h 45m
Length of Day
9h 49m
Full, 98% of the Moon is Illuminated
Dec 29
Full
Jan 4
Last Quarter
Jan 11
New
Jan 18
First Quarter
Jan 26
Full

Hourly Weather History & Observations

Time (MST) Temp. Windchill Dew Point Humidity Pressure Visibility Wind Dir Wind Speed Gust Speed Precip Events Conditions
12:15 AM 8.8 °F 0.4 °F 5.4 °F 86% 30.23 in 10.0 mi WNW 4.6 mph - N/A   Clear
12:35 AM 8.2 °F -0.3 °F 5.0 °F 87% 30.24 in 10.0 mi NW 4.6 mph - N/A   Clear
12:55 AM 9.0 °F -2.2 °F 5.9 °F 87% 30.23 in 10.0 mi NW 6.9 mph - N/A   Clear
1:15 AM 9.3 °F 1.0 °F 6.1 °F 87% 30.24 in 10.0 mi NW 4.6 mph - N/A   Clear
1:35 AM 6.1 °F -5.6 °F 3.0 °F 87% 30.22 in 10.0 mi North 6.9 mph - N/A   Clear
1:55 AM 6.8 °F -3.5 °F 3.9 °F 88% 30.23 in 10.0 mi NW 5.8 mph - N/A   Clear
2:15 AM 6.8 °F -8.6 °F 3.9 °F 88% 30.24 in 10.0 mi NW 11.5 mph - N/A   Clear
2:35 AM 7.0 °F -4.5 °F 4.1 °F 88% 30.24 in 10.0 mi WNW 6.9 mph - N/A   Clear
2:55 AM 6.3 °F -2.6 °F 3.0 °F 87% 30.25 in 10.0 mi West 4.6 mph - N/A   Clear
3:15 AM 6.3 °F -4.1 °F 2.8 °F 86% 30.24 in 10.0 mi NW 5.8 mph - N/A   Clear
3:35 AM 4.5 °F -4.7 °F 1.2 °F 86% 30.24 in 10.0 mi WNW 4.6 mph - N/A   Clear
3:55 AM 5.4 °F -1.7 °F 1.6 °F 84% 30.24 in 10.0 mi NW 3.5 mph - N/A   Clear
4:15 AM 3.9 °F -5.3 °F 0.9 °F 87% 30.24 in 10.0 mi WNW 4.6 mph - N/A   Clear
4:35 AM 4.6 °F -6.0 °F 1.0 °F 85% 30.22 in 10.0 mi NW 5.8 mph - N/A   Clear
5:15 AM 3.2 °F -7.8 °F 0.3 °F 88% 30.23 in 10.0 mi NW 5.8 mph - N/A   Clear
5:35 AM 3.7 °F -8.4 °F 0.3 °F 86% 30.24 in 10.0 mi WNW 6.9 mph - N/A   Clear
5:55 AM 2.3 °F - -1.5 °F 84% 30.24 in 10.0 mi Calm Calm - N/A   Clear
6:15 AM 1.4 °F -8.3 °F -2.4 °F 84% 30.23 in 10.0 mi North 4.6 mph - N/A   Clear
6:35 AM 1.4 °F -6.2 °F -2.0 °F 86% 30.24 in 10.0 mi North 3.5 mph - N/A   Clear
6:55 AM -0.2 °F - -3.1 °F 88% 30.24 in 10.0 mi Calm Calm - N/A   Clear
7:15 AM -4.0 °F -12.4 °F -8.1 °F 82% 30.24 in 10.0 mi WNW 3.5 mph - N/A   Clear
7:35 AM 0.3 °F -9.5 °F -2.7 °F 87% 30.24 in 10.0 mi NW 4.6 mph - N/A   Clear
7:55 AM 2.3 °F -7.2 °F -1.3 °F 85% 30.24 in 10.0 mi NW 4.6 mph - N/A   Clear
8:15 AM 4.1 °F - 0.3 °F 84% 30.24 in 10.0 mi Calm Calm - N/A   Clear
8:35 AM 6.8 °F - 3.0 °F 84% 30.26 in 10.0 mi Calm Calm - N/A   Clear
8:55 AM 9.1 °F 2.6 °F 5.2 °F 84% 30.26 in 10.0 mi NNW 3.5 mph - N/A   Clear
9:15 AM 10.6 °F 4.3 °F 6.4 °F 83% 30.25 in 10.0 mi NNW 3.5 mph - N/A   Clear
9:35 AM 13.1 °F - 8.2 °F 81% 30.24 in 10.0 mi Calm Calm - N/A   Clear
9:55 AM 16.5 °F - 10.4 °F 77% 30.24 in 10.0 mi Calm Calm - N/A   Clear
10:15 AM 22.3 °F 12.2 °F 13.5 °F 69% 30.24 in 10.0 mi SSE 9.2 mph - N/A   Clear
10:35 AM 27.3 °F 16.1 °F 11.8 °F 52% 30.24 in 10.0 mi SSE 13.8 mph - N/A   Clear
10:55 AM 28.6 °F 17.7 °F 10.8 °F 47% 30.23 in 10.0 mi SSE 13.8 mph 19.6 mph N/A   Clear
11:15 AM 30.2 °F 18.9 °F 8.2 °F 40% 30.21 in 10.0 mi SSE 16.1 mph 25.3 mph N/A   Clear
11:35 AM 31.6 °F 20.7 °F 9.9 °F 40% 30.20 in 10.0 mi SSE 16.1 mph - N/A   Clear
11:55 AM 32.2 °F 20.7 °F 7.3 °F 35% 30.18 in 10.0 mi SE 18.4 mph 24.2 mph N/A   Clear
12:15 PM 33.8 °F 22.5 °F 6.3 °F 32% 30.17 in 10.0 mi SE 19.6 mph 24.2 mph N/A   Clear
12:35 PM 34.3 °F 24.6 °F 6.1 °F 31% 30.16 in 10.0 mi SSE 15.0 mph 21.9 mph N/A   Clear
12:55 PM 34.9 °F 25.7 °F 6.1 °F 30% 30.15 in 10.0 mi SE 13.8 mph - N/A   Clear
1:15 PM 35.8 °F 25.7 °F 6.3 °F 29% 30.13 in 10.0 mi SSE 17.3 mph 20.7 mph N/A   Clear
1:35 PM 36.3 °F 27.1 °F 6.6 °F 29% 30.12 in 10.0 mi SSE 15.0 mph 21.9 mph N/A   Clear
1:55 PM 36.7 °F 27.6 °F 6.4 °F 28% 30.12 in 10.0 mi SE 15.0 mph 19.6 mph N/A   Clear
2:15 PM 36.9 °F 27.1 °F 6.6 °F 28% 30.10 in 10.0 mi SSE 17.3 mph 21.9 mph N/A   Clear
2:35 PM 36.9 °F 28.7 °F 6.6 °F 28% 30.09 in 10.0 mi SE 12.7 mph 23.0 mph N/A   Clear
2:55 PM 36.0 °F 26.3 °F 7.0 °F 30% 30.09 in 10.0 mi SE 16.1 mph 23.0 mph N/A   Clear
3:15 PM 36.0 °F 26.0 °F 7.7 °F 31% 30.09 in 10.0 mi SE 17.3 mph 21.9 mph N/A   Clear
3:35 PM 35.6 °F 25.9 °F 7.7 °F 31% 30.08 in 10.0 mi SSE 16.1 mph 24.2 mph N/A   Clear
3:55 PM 35.6 °F 25.5 °F 7.7 °F 31% 30.09 in 10.0 mi SSE 17.3 mph 23.0 mph N/A   Clear
4:15 PM 34.2 °F 24.0 °F 7.9 °F 33% 30.09 in 10.0 mi SE 16.1 mph 25.3 mph N/A   Clear
4:35 PM 32.5 °F 22.7 °F 7.3 °F 35% 30.08 in 10.0 mi SSE 13.8 mph 21.9 mph N/A   Clear
4:55 PM 32.0 °F 23.0 °F 7.5 °F 36% 30.08 in 10.0 mi SSE 11.5 mph - N/A   Clear
5:15 PM 30.2 °F 21.3 °F 7.3 °F 38% 30.09 in 10.0 mi South 10.4 mph 18.4 mph N/A   Clear
5:35 PM 29.7 °F 19.6 °F 7.2 °F 39% 30.09 in 10.0 mi South 12.7 mph 17.3 mph N/A   Clear
5:55 PM 29.7 °F 20.1 °F 6.4 °F 38% 30.10 in 10.0 mi SSE 11.5 mph 17.3 mph N/A   Clear
6:15 PM 28.6 °F 18.2 °F 6.1 °F 39% 30.10 in 10.0 mi SSE 12.7 mph 16.1 mph N/A   Clear
6:35 PM 28.4 °F 18.5 °F 6.3 °F 39% 30.12 in 10.0 mi South 11.5 mph - N/A   Clear
6:55 PM 27.7 °F 18.2 °F 6.4 °F 41% 30.11 in 10.0 mi South 10.4 mph - N/A   Clear
7:15 PM 27.9 °F 17.8 °F 6.6 °F 41% 30.10 in 10.0 mi South 11.5 mph - N/A   Clear
7:35 PM 27.9 °F 18.4 °F 6.8 °F 41% 30.10 in 10.0 mi South 10.4 mph - N/A   Clear
7:55 PM 28.0 °F 18.6 °F 7.2 °F 41% 30.10 in 10.0 mi South 10.4 mph 17.3 mph N/A   Clear
8:15 PM 27.9 °F 17.8 °F 7.7 °F 43% 30.09 in 10.0 mi South 11.5 mph - N/A   Clear
8:35 PM 27.9 °F 17.8 °F 7.7 °F 43% 30.08 in 10.0 mi South 11.5 mph 16.1 mph N/A   Clear
8:55 PM 27.5 °F 18.0 °F 8.2 °F 44% 30.08 in 10.0 mi South 10.4 mph - N/A   Clear
9:15 PM 27.5 °F 18.0 °F 8.4 °F 45% 30.08 in 10.0 mi South 10.4 mph - N/A   Clear
9:35 PM 27.5 °F 18.6 °F 8.4 °F 45% 30.08 in 10.0 mi South 9.2 mph - N/A   Clear
9:55 PM 27.3 °F 17.7 °F 8.6 °F 45% 30.08 in 10.0 mi South 10.4 mph - N/A   Clear
10:15 PM 27.5 °F 18.0 °F 8.6 °F 45% 30.07 in 10.0 mi South 10.4 mph 16.1 mph N/A   Clear
10:35 PM 27.5 °F 19.3 °F 8.6 °F 45% 30.08 in 10.0 mi South 8.1 mph - N/A   Clear
10:55 PM 27.9 °F 19.1 °F 8.8 °F 45% 30.08 in 10.0 mi South 9.2 mph - N/A   Clear
11:15 PM 27.5 °F 19.3 °F 8.8 °F 45% 30.07 in 10.0 mi South 8.1 mph - N/A   Clear
11:35 PM 27.0 °F 18.7 °F 8.8 °F 46% 30.07 in 10.0 mi South 8.1 mph - N/A   Clear
11:55 PM 26.4 °F 18.9 °F 8.6 °F 47% 30.07 in 10.0 mi South 6.9 mph - N/A   Clear